LAN2012 WSSS-RCTP

Flight info

Callsign LAN2012
Flight time N/A
Altitude 37000
Route VMR9B VMR M771 DUDIS/K0885F370 M771 DOSUT/N0473F370 M771 DULOP DCT ENVAR M750 TONGA TONGA1A
Aircraft B772/H-SDE2E3FGHIJ5LORVWXY/LB1D1

Departure

Time 2026-05-05 22:59
Airport Singapore Changi Airport (WSSS)

Arrival

Time N/A
Airport Taiwan Taoyuan International Airport (RCTP)
Time Latitude Longitude Altitude Speed Heading
2026-05-05 22:29 1.34916 103.98168 41 ft 0 kts 71°
2026-05-05 22:43 1.34912 103.98157 40 ft 2 kts 71°
2026-05-05 22:43 1.34908 103.98142 40 ft 2 kts 71°
2026-05-05 22:43 1.34903 103.98128 40 ft 2 kts 71°
2026-05-05 22:44 1.34898 103.98113 40 ft 2 kts 84°
2026-05-05 22:44 1.34899 103.98099 39 ft 2 kts 105°
2026-05-05 22:44 1.34905 103.98085 39 ft 2 kts 123°
2026-05-05 22:44 1.34914 103.98074 39 ft 2 kts 141°
2026-05-05 22:45 1.34927 103.98066 39 ft 2 kts 159°
2026-05-05 22:45 1.34942 103.98062 39 ft 2 kts 178°
2026-05-05 22:45 1.34956 103.98063 39 ft 2 kts 196°
2026-05-05 22:45 1.34963 103.98065 39 ft 1 kts 201°
2026-05-05 22:46 1.34964 103.98066 39 ft 0 kts 201°
2026-05-05 22:48 1.34962 103.98065 39 ft 0 kts 201°
2026-05-05 22:48 1.34949 103.98060 39 ft 3 kts 201°
2026-05-05 22:48 1.34923 103.98050 39 ft 4 kts 201°
2026-05-05 22:49 1.34894 103.98038 39 ft 4 kts 201°
2026-05-05 22:49 1.34861 103.98025 40 ft 5 kts 204°
2026-05-05 22:49 1.34838 103.98019 40 ft 5 kts 187°
2026-05-05 22:50 1.34764 103.98096 39 ft 0 kts 112°
2026-05-05 22:50 1.34763 103.98099 39 ft 1 kts 111°
2026-05-05 22:50 1.34756 103.98115 39 ft 3 kts 114°
2026-05-05 22:51 1.34745 103.98141 40 ft 4 kts 114°
2026-05-05 22:51 1.34733 103.98166 40 ft 3 kts 113°
2026-05-05 22:51 1.34722 103.98193 41 ft 5 kts 113°
2026-05-05 22:51 1.34700 103.98244 42 ft 10 kts 113°
2026-05-05 22:52 1.34669 103.98317 43 ft 11 kts 113°
2026-05-05 22:52 1.34636 103.98394 43 ft 12 kts 113°
2026-05-05 22:52 1.34598 103.98482 42 ft 14 kts 112°
2026-05-05 22:52 1.34558 103.98577 42 ft 15 kts 113°
2026-05-05 22:53 1.34514 103.98680 41 ft 16 kts 112°
2026-05-05 22:53 1.34468 103.98789 40 ft 17 kts 112°
2026-05-05 22:53 1.34426 103.98884 39 ft 11 kts 114°
2026-05-05 22:53 1.34363 103.98923 38 ft 12 kts 193°
2026-05-05 22:54 1.34271 103.98888 36 ft 15 kts 202°
2026-05-05 22:54 1.34165 103.98843 34 ft 17 kts 203°
2026-05-05 22:54 1.34055 103.98796 35 ft 17 kts 203°
2026-05-05 22:54 1.33945 103.98751 36 ft 17 kts 202°
2026-05-05 22:55 1.33833 103.98703 34 ft 18 kts 203°
2026-05-05 22:55 1.33714 103.98653 35 ft 18 kts 202°
2026-05-05 22:55 1.33594 103.98603 35 ft 18 kts 203°
2026-05-05 22:55 1.33475 103.98553 36 ft 18 kts 203°
2026-05-05 22:56 1.33361 103.98505 37 ft 17 kts 203°
2026-05-05 22:56 1.33251 103.98458 39 ft 16 kts 203°
2026-05-05 22:56 1.33142 103.98412 39 ft 17 kts 203°
2026-05-05 22:56 1.33042 103.98370 40 ft 12 kts 203°
2026-05-05 22:57 1.32960 103.98335 39 ft 13 kts 203°
2026-05-05 22:57 1.32895 103.98309 38 ft 7 kts 193°
2026-05-05 22:57 1.32847 103.98323 37 ft 5 kts 133°
2026-05-05 22:57 1.32831 103.98361 37 ft 6 kts 92°
2026-05-05 22:58 1.32843 103.98413 37 ft 8 kts 69°
2026-05-05 22:58 1.32870 103.98471 37 ft 9 kts 55°
2026-05-05 22:58 1.32929 103.98517 37 ft 13 kts 28°
2026-05-05 22:58 1.33230 103.98647 35 ft 86 kts 24°
2026-05-05 22:59 1.34025 103.98982 34 ft 158 kts 23°
2026-05-05 22:59 1.35216 103.99483 120 ft 209 kts 22°
2026-05-05 22:59 1.36618 104.00057 780 ft 221 kts 22°
2026-05-05 22:59 1.38028 104.00548 1967 ft 215 kts 13°
2026-05-05 23:00 1.40846 103.99520 2804 ft 242 kts 306°
2026-05-05 23:00 1.41451 103.97979 3390 ft 244 kts 275°
2026-05-05 23:00 1.41153 103.96332 4008 ft 244 kts 243°
2026-05-05 23:01 1.40036 103.95081 4591 ft 246 kts 212°
2026-05-05 23:01 1.38426 103.94558 5124 ft 248 kts 182°
2026-05-05 23:01 1.36734 103.94873 5683 ft 250 kts 159°
2026-05-05 23:01 1.35105 103.95515 6330 ft 250 kts 157°
2026-05-05 23:02 1.33493 103.96169 6935 ft 252 kts 157°
2026-05-05 23:02 1.31868 103.96830 7530 ft 253 kts 155°
2026-05-05 23:02 1.30461 103.97852 8065 ft 254 kts 129°
2026-05-05 23:02 1.29695 103.99425 8578 ft 256 kts 101°
2026-05-05 23:03 1.29761 104.01211 8963 ft 269 kts 73°
2026-05-05 23:03 1.30762 104.02856 9242 ft 287 kts 42°
2026-05-05 23:03 1.32571 104.03742 9783 ft 295 kts
2026-05-05 23:03 1.34627 104.03687 10368 ft 303 kts 354°
2026-05-05 23:04 1.36758 104.03373 10735 ft 319 kts 353°
2026-05-05 23:04 1.39030 104.03020 11086 ft 334 kts 354°
2026-05-05 23:04 1.41400 104.03052 11383 ft 347 kts
2026-05-05 23:04 1.43853 104.03453 11701 ft 361 kts 12°
2026-05-05 23:05 1.46367 104.03898 12019 ft 375 kts 12°
2026-05-05 23:05 1.48980 104.04363 12448 ft 385 kts 12°
2026-05-05 23:05 1.51629 104.04833 13060 ft 388 kts 12°
2026-05-05 23:05 1.54294 104.05305 13723 ft 389 kts 12°
2026-05-05 23:06 1.56983 104.05782 14303 ft 393 kts 12°
2026-05-05 23:06 1.59692 104.06263 14856 ft 398 kts 12°
2026-05-05 23:06 1.62455 104.06753 15455 ft 401 kts 12°
2026-05-05 23:06 1.65194 104.07239 16039 ft 403 kts 12°
2026-05-05 23:07 1.67999 104.07737 16589 ft 407 kts 12°
2026-05-05 23:07 1.70819 104.08237 17110 ft 411 kts 12°
2026-05-05 23:07 1.73637 104.08737 17662 ft 414 kts 12°
2026-05-05 23:07 1.76491 104.09244 18178 ft 418 kts 12°
2026-05-05 23:08 1.79367 104.09754 18685 ft 422 kts 12°
2026-05-05 23:08 1.82304 104.10275 19220 ft 425 kts 12°
2026-05-05 23:08 1.85226 104.10794 19728 ft 428 kts 12°
2026-05-05 23:08 1.88170 104.11317 20226 ft 432 kts 12°
2026-05-05 23:09 1.91138 104.11843 20700 ft 435 kts 12°
2026-05-05 23:09 1.94134 104.12375 21194 ft 439 kts 12°
2026-05-05 23:09 1.97184 104.12916 21681 ft 442 kts 12°
2026-05-05 23:09 2.00222 104.13455 22137 ft 445 kts 12°
2026-05-05 23:10 2.03266 104.13996 22613 ft 448 kts 12°
2026-05-05 23:10 2.06352 104.14544 23095 ft 451 kts 12°
2026-05-05 23:10 2.09490 104.15101 23603 ft 453 kts 12°
2026-05-05 23:10 2.12600 104.15653 24076 ft 456 kts 12°
2026-05-05 23:11 2.15738 104.16209 24491 ft 459 kts 12°
2026-05-05 23:11 2.18904 104.16772 24881 ft 463 kts 12°
2026-05-05 23:11 2.22120 104.17343 25271 ft 467 kts 12°
2026-05-05 23:11 2.25315 104.17910 25694 ft 470 kts 12°
2026-05-05 23:12 2.28570 104.18488 26121 ft 472 kts 12°
2026-05-05 23:12 2.31804 104.19061 26513 ft 474 kts 12°
2026-05-05 23:12 2.35082 104.19643 26877 ft 478 kts 12°
2026-05-05 23:12 2.38358 104.20225 27214 ft 481 kts 12°
2026-05-05 23:13 2.41709 104.20819 27581 ft 484 kts 12°
2026-05-05 23:13 2.45030 104.21409 27969 ft 485 kts 12°
2026-05-05 23:13 2.48352 104.21999 28335 ft 487 kts 12°
2026-05-05 23:13 2.51704 104.22594 28673 ft 490 kts 12°
2026-05-05 23:14 2.55084 104.23193 28980 ft 493 kts 12°
2026-05-05 23:14 2.58457 104.23792 29425 ft 493 kts 11°
2026-05-05 23:14 2.61861 104.24397 29950 ft 491 kts 11°
2026-05-05 23:14 2.65207 104.24990 30447 ft 489 kts 11°
2026-05-05 23:15 2.68548 104.25583 30909 ft 488 kts 11°
2026-05-05 23:15 2.71892 104.26176 31342 ft 488 kts 11°
2026-05-05 23:15 2.75281 104.26778 31778 ft 487 kts 11°
2026-05-05 23:15 2.78597 104.27367 32233 ft 486 kts 11°
2026-05-05 23:16 2.81924 104.27958 32686 ft 485 kts 11°
2026-05-05 23:16 2.85276 104.28553 33175 ft 484 kts 11°
2026-05-05 23:16 2.88639 104.29150 33727 ft 482 kts 11°
2026-05-05 23:16 2.91942 104.29736 34344 ft 478 kts 11°
2026-05-05 23:17 2.95233 104.30321 34946 ft 474 kts 11°
2026-05-05 23:17 2.98484 104.30898 35470 ft 472 kts 11°
2026-05-05 23:17 3.01707 104.31471 35889 ft 471 kts 11°
2026-05-05 23:17 3.04938 104.32046 36244 ft 471 kts 11°
2026-05-05 23:18 3.08175 104.32622 36600 ft 470 kts 11°
2026-05-05 23:18 3.11377 104.33325 36828 ft 469 kts 18°
2026-05-05 23:18 3.17306 104.36066 36835 ft 468 kts 32°
2026-05-05 23:19 3.22898 104.39547 36833 ft 476 kts 33°
2026-05-05 23:19 3.28568 104.43080 36840 ft 484 kts 33°
2026-05-05 23:20 3.34334 104.46668 36842 ft 490 kts 33°
2026-05-05 23:20 3.40170 104.50296 36850 ft 495 kts 33°
2026-05-05 23:21 3.46060 104.53957 36845 ft 498 kts 33°
2026-05-05 23:21 3.51972 104.57632 36845 ft 498 kts 33°
2026-05-05 23:22 3.57871 104.61298 36845 ft 498 kts 32°
2026-05-05 23:22 3.63746 104.64950 36844 ft 498 kts 32°
2026-05-05 23:23 3.69652 104.68622 36848 ft 498 kts 32°
2026-05-05 23:23 3.75572 104.72303 36848 ft 498 kts 32°
2026-05-05 23:24 3.81441 104.75953 36847 ft 497 kts 33°
2026-05-05 23:24 3.87350 104.79629 36847 ft 498 kts 33°
2026-05-05 23:25 3.93241 104.83295 36847 ft 498 kts 33°
2026-05-05 23:25 3.99094 104.86938 36845 ft 498 kts 32°
2026-05-05 23:26 4.04990 104.90609 36834 ft 497 kts 32°
2026-05-05 23:26 4.10894 104.94285 36830 ft 498 kts 32°
2026-05-05 23:27 4.16794 104.97958 36830 ft 498 kts 33°
2026-05-05 23:27 4.22670 105.01617 36827 ft 498 kts 33°
2026-05-05 23:28 4.28599 105.05300 36828 ft 498 kts 32°
2026-05-05 23:28 4.34483 105.08956 36827 ft 497 kts 32°
2026-05-05 23:29 4.40361 105.12609 36827 ft 497 kts 32°
2026-05-05 23:29 4.46254 105.16272 36827 ft 497 kts 33°
2026-05-05 23:30 4.52145 105.19934 36826 ft 497 kts 33°
2026-05-05 23:30 4.58030 105.23594 36826 ft 497 kts 33°
2026-05-05 23:31 4.63901 105.27245 36826 ft 497 kts 33°
2026-05-05 23:31 4.69786 105.30907 36828 ft 497 kts 33°
2026-05-05 23:32 4.75693 105.34583 36838 ft 497 kts 33°
2026-05-05 23:32 4.81588 105.38251 36844 ft 497 kts 33°
2026-05-05 23:33 4.87393 105.42014 36844 ft 496 kts 34°
2026-05-05 23:33 4.93191 105.45799 36844 ft 497 kts 34°
2026-05-05 23:34 4.99017 105.49598 36844 ft 498 kts 34°
2026-05-05 23:34 5.04802 105.53368 36845 ft 497 kts 34°
2026-05-05 23:35 5.10630 105.57166 36844 ft 497 kts 34°
2026-05-05 23:35 5.16430 105.60944 36846 ft 497 kts 34°
2026-05-05 23:36 5.22243 105.64732 36845 ft 497 kts 34°
2026-05-05 23:36 5.28043 105.68513 36849 ft 497 kts 34°
2026-05-05 23:37 5.33874 105.72313 36849 ft 498 kts 34°
2026-05-05 23:37 5.39694 105.76108 36849 ft 498 kts 34°
2026-05-05 23:38 5.45475 105.79878 36848 ft 498 kts 34°
2026-05-05 23:38 5.51310 105.83683 36848 ft 498 kts 34°
2026-05-05 23:39 5.57132 105.87482 36849 ft 498 kts 34°
2026-05-05 23:39 5.62941 105.91272 36849 ft 499 kts 34°
2026-05-05 23:40 5.68784 105.95087 36848 ft 499 kts 34°
2026-05-05 23:40 5.74575 105.98867 36847 ft 498 kts 34°
2026-05-05 23:41 5.80393 106.02666 36846 ft 498 kts 34°
2026-05-05 23:41 5.86238 106.06484 36847 ft 497 kts 34°
2026-05-05 23:42 5.92031 106.10269 36846 ft 497 kts 34°
2026-05-05 23:42 5.97831 106.14059 36846 ft 497 kts 34°
2026-05-05 23:43 6.03667 106.17874 36844 ft 498 kts 34°
2026-05-05 23:43 6.09460 106.21663 36843 ft 498 kts 34°
2026-05-05 23:44 6.15284 106.25472 36838 ft 497 kts 34°
2026-05-05 23:44 6.21064 106.29253 36839 ft 497 kts 34°
2026-05-05 23:45 6.26859 106.33045 36847 ft 497 kts 34°
2026-05-05 23:45 6.32693 106.36865 36851 ft 497 kts 34°
2026-05-05 23:46 6.38490 106.40659 36848 ft 497 kts 34°
2026-05-05 23:46 6.44274 106.44448 36845 ft 496 kts 34°
2026-05-05 23:47 6.50101 106.48265 36846 ft 497 kts 34°
2026-05-05 23:47 6.55902 106.52067 36845 ft 497 kts 34°
2026-05-05 23:48 6.61681 106.55855 36844 ft 496 kts 34°
2026-05-05 23:48 6.67461 106.59644 36844 ft 496 kts 34°
2026-05-05 23:49 6.73254 106.63443 36843 ft 496 kts 34°
2026-05-05 23:49 6.79042 106.67241 36848 ft 497 kts 34°
2026-05-05 23:50 6.84871 106.71066 36848 ft 497 kts 34°
2026-05-05 23:50 6.90654 106.74862 36847 ft 496 kts 34°
2026-05-05 23:51 6.96430 106.78655 36846 ft 496 kts 34°
2026-05-05 23:51 7.02228 106.82464 36847 ft 495 kts 34°
2026-05-05 23:52 7.08002 106.86262 36846 ft 497 kts 34°
2026-05-05 23:52 7.13810 106.90084 36849 ft 498 kts 34°
2026-05-05 23:53 7.19605 106.93899 36849 ft 498 kts 34°
2026-05-05 23:53 7.25411 106.97722 36848 ft 497 kts 34°
2026-05-05 23:54 7.31212 107.01543 36848 ft 497 kts 34°
2026-05-05 23:54 7.37002 107.05357 36848 ft 497 kts 34°
2026-05-05 23:55 7.42774 107.09161 36847 ft 498 kts 34°
2026-05-05 23:55 7.48533 107.12958 36847 ft 479 kts 34°
2026-05-05 23:56 7.51269 107.14761 36844 ft 466 kts 34°
2026-05-05 23:56 7.53975 107.16546 36847 ft 461 kts 34°
2026-05-05 23:56 7.59367 107.20104 36852 ft 461 kts 34°
2026-05-05 23:57 7.64759 107.23662 36860 ft 465 kts 34°
2026-05-05 23:57 7.70194 107.27249 36867 ft 463 kts 34°
2026-05-05 23:58 7.75587 107.30810 36866 ft 466 kts 34°
2026-05-05 23:58 7.81038 107.34410 36866 ft 466 kts 34°
2026-05-05 23:59 7.86467 107.37997 36866 ft 465 kts 34°
2026-05-05 23:59 7.91871 107.41569 36866 ft 465 kts 34°
2026-05-06 00:00 7.97283 107.45146 36865 ft 464 kts 34°
2026-05-06 00:00 8.02681 107.48716 36865 ft 464 kts 34°
2026-05-06 00:01 8.08090 107.52294 36865 ft 466 kts 34°
2026-05-06 00:01 8.13528 107.55893 36867 ft 466 kts 34°
2026-05-06 00:02 8.18941 107.59476 36867 ft 465 kts 34°
2026-05-06 00:02 8.24383 107.63081 36866 ft 465 kts 34°
2026-05-06 00:03 8.29804 107.66671 36870 ft 467 kts 34°
2026-05-06 00:03 8.35275 107.70296 36869 ft 466 kts 34°
2026-05-06 00:04 8.40676 107.73876 36868 ft 466 kts 34°
2026-05-06 00:04 8.46099 107.77472 36870 ft 466 kts 34°
2026-05-06 00:05 8.54231 107.82867 36868 ft 467 kts 33°
2026-05-06 00:06 8.59686 107.86488 36869 ft 466 kts 33°
2026-05-06 00:06 8.65132 107.90102 36867 ft 466 kts 33°
2026-05-06 00:07 8.70533 107.93689 36868 ft 466 kts 33°
2026-05-06 00:07 8.75954 107.97291 36867 ft 465 kts 33°
2026-05-06 00:08 8.81405 108.00913 36867 ft 466 kts 33°
2026-05-06 00:08 8.86793 108.04495 36867 ft 464 kts 33°
2026-05-06 00:09 8.92248 108.08123 36866 ft 466 kts 33°
2026-05-06 00:09 8.97671 108.11731 36866 ft 465 kts 33°
2026-05-06 00:10 9.03080 108.15331 36866 ft 467 kts 33°
2026-05-06 00:10 9.08511 108.18947 36869 ft 466 kts 33°
2026-05-06 00:11 9.13939 108.22562 36869 ft 466 kts 33°
2026-05-06 00:11 9.19383 108.26189 36872 ft 466 kts 33°
2026-05-06 00:12 9.24797 108.29798 36866 ft 466 kts 33°
2026-05-06 00:12 9.30211 108.33408 36860 ft 467 kts 33°
2026-05-06 00:13 9.35649 108.37035 36860 ft 468 kts 33°
2026-05-06 00:13 9.41079 108.40659 36862 ft 467 kts 33°
2026-05-06 00:14 9.46494 108.44273 36862 ft 468 kts 33°
2026-05-06 00:14 9.51969 108.47927 36862 ft 467 kts 33°
2026-05-06 00:15 9.57389 108.51545 36865 ft 467 kts 33°
2026-05-06 00:15 9.62791 108.55152 36866 ft 467 kts 33°
2026-05-06 00:16 9.68236 108.58790 36871 ft 467 kts 33°
2026-05-06 00:16 9.73692 108.62436 36868 ft 469 kts 33°
2026-05-06 00:17 9.79138 108.66077 36871 ft 469 kts 34°
2026-05-06 00:17 9.84595 108.69727 36869 ft 468 kts 34°
2026-05-06 00:18 9.90010 108.73350 36867 ft 469 kts 34°
2026-05-06 00:18 9.95478 108.77010 36870 ft 468 kts 34°
2026-05-06 00:19 10.00912 108.80649 36867 ft 468 kts 34°
2026-05-06 00:19 10.06339 108.84280 36867 ft 470 kts 33°
2026-05-06 00:20 10.11808 108.87941 36872 ft 468 kts 33°
2026-05-06 00:20 10.17263 108.91594 36869 ft 469 kts 33°
2026-05-06 00:21 10.22716 108.95247 36869 ft 469 kts 33°
2026-05-06 00:21 10.28173 108.98904 36873 ft 469 kts 33°
2026-05-06 00:22 10.33602 109.02544 36874 ft 469 kts 33°
2026-05-06 00:22 10.39079 109.06219 36875 ft 471 kts 33°
2026-05-06 00:23 10.44554 109.09892 36878 ft 470 kts 33°
2026-05-06 00:23 10.49998 109.13547 36878 ft 470 kts 33°
2026-05-06 00:24 10.55475 109.17226 36877 ft 471 kts 33°
2026-05-06 00:24 10.60963 109.20914 36881 ft 472 kts 33°
2026-05-06 00:25 10.66449 109.24602 36886 ft 472 kts 33°
2026-05-06 00:25 10.71908 109.28273 36888 ft 471 kts 33°
2026-05-06 00:26 10.77380 109.31955 36888 ft 471 kts 33°
2026-05-06 00:26 10.82879 109.35657 36888 ft 473 kts 33°
2026-05-06 00:27 10.88342 109.39336 36888 ft 471 kts 33°
2026-05-06 00:27 10.93818 109.43024 36889 ft 473 kts 33°
2026-05-06 00:28 10.99318 109.46732 36888 ft 472 kts 33°
2026-05-06 00:28 11.04810 109.50436 36888 ft 474 kts 33°
2026-05-06 00:29 11.10305 109.54143 36889 ft 473 kts 33°
2026-05-06 00:29 11.15797 109.57784 36892 ft 473 kts 32°
2026-05-06 00:30 11.21371 109.61451 36893 ft 473 kts 32°
2026-05-06 00:30 11.26871 109.65074 36900 ft 473 kts 32°
2026-05-06 00:31 11.32406 109.68723 36891 ft 473 kts 32°
2026-05-06 00:31 11.37958 109.72387 36886 ft 473 kts 32°
2026-05-06 00:32 11.43478 109.76032 36883 ft 473 kts 32°
2026-05-06 00:32 11.49022 109.79694 36883 ft 474 kts 32°
2026-05-06 00:33 11.54576 109.83364 36881 ft 474 kts 32°
2026-05-06 00:33 11.60127 109.87035 36887 ft 474 kts 32°
2026-05-06 00:34 11.65659 109.90695 36883 ft 473 kts 32°
2026-05-06 00:34 11.71162 109.94338 36883 ft 473 kts 32°
2026-05-06 00:35 11.76714 109.98014 36883 ft 473 kts 32°
2026-05-06 00:35 11.82232 110.01670 36887 ft 473 kts 32°
2026-05-06 00:36 11.87746 110.05325 36886 ft 474 kts 32°
2026-05-06 00:36 11.93301 110.09010 36888 ft 475 kts 32°
2026-05-06 00:37 11.98825 110.12674 36888 ft 474 kts 32°
2026-05-06 00:37 12.04343 110.16338 36888 ft 473 kts 32°
2026-05-06 00:38 12.09867 110.20007 36887 ft 473 kts 32°
2026-05-06 00:38 12.15404 110.23686 36889 ft 473 kts 32°
2026-05-06 00:39 12.20925 110.27357 36891 ft 474 kts 32°
2026-05-06 00:39 12.26487 110.31056 36890 ft 474 kts 32°
2026-05-06 00:40 12.32016 110.34736 36890 ft 474 kts 31°
2026-05-06 00:40 12.37553 110.38427 36889 ft 475 kts 32°
2026-05-06 00:41 12.43004 110.42224 36890 ft 474 kts 33°
2026-05-06 00:41 12.48465 110.46044 36890 ft 475 kts 33°
2026-05-06 00:42 12.53922 110.49858 36890 ft 475 kts 32°
2026-05-06 00:42 12.59390 110.53678 36890 ft 475 kts 32°
2026-05-06 00:43 12.64846 110.57491 36893 ft 475 kts 32°
2026-05-06 00:43 12.70291 110.61298 36896 ft 475 kts 32°
2026-05-06 00:44 12.75768 110.65127 36898 ft 476 kts 33°
2026-05-06 00:44 12.81267 110.68972 36897 ft 476 kts 33°
2026-05-06 00:45 12.86744 110.72806 36902 ft 477 kts 33°
2026-05-06 00:45 12.92223 110.76641 36905 ft 478 kts 33°
2026-05-06 00:46 12.97710 110.80486 36907 ft 478 kts 32°
2026-05-06 00:46 13.03190 110.84326 36907 ft 477 kts 32°
2026-05-06 00:47 13.08672 110.88170 36908 ft 477 kts 32°
2026-05-06 00:47 13.14172 110.92029 36910 ft 477 kts 33°
2026-05-06 00:48 13.19645 110.95872 36911 ft 477 kts 33°
2026-05-06 00:48 13.25126 110.99721 36910 ft 478 kts 33°
2026-05-06 00:49 13.30625 111.03587 36910 ft 478 kts 33°
2026-05-06 00:49 13.36081 111.07423 36910 ft 477 kts 33°
2026-05-06 00:50 13.41590 111.11299 36910 ft 477 kts 33°
2026-05-06 00:50 13.47034 111.15132 36910 ft 477 kts 33°
2026-05-06 00:51 13.52515 111.18992 36910 ft 477 kts 33°
2026-05-06 00:51 13.58007 111.22863 36908 ft 477 kts 33°
2026-05-06 00:52 13.63454 111.26704 36909 ft 476 kts 33°
2026-05-06 00:52 13.68936 111.30572 36908 ft 476 kts 33°
2026-05-06 00:53 13.74431 111.34452 36904 ft 477 kts 33°
2026-05-06 00:53 13.79913 111.38324 36901 ft 477 kts 33°
2026-05-06 00:54 13.85365 111.42178 36895 ft 477 kts 33°
2026-05-06 00:54 13.90866 111.46069 36890 ft 477 kts 33°
2026-05-06 00:55 13.96347 111.49947 36890 ft 477 kts 33°
2026-05-06 00:55 14.01806 111.53798 36890 ft 476 kts 33°
2026-05-06 00:56 14.07290 111.57655 36891 ft 477 kts 32°
2026-05-06 00:56 14.12771 111.61512 36894 ft 478 kts 33°
2026-05-06 00:57 14.18263 111.65380 36898 ft 477 kts 33°
2026-05-06 00:57 14.23746 111.69245 36901 ft 477 kts 33°
2026-05-06 00:58 14.29240 111.73119 36904 ft 477 kts 33°
2026-05-06 00:58 14.34714 111.76984 36909 ft 476 kts 33°
2026-05-06 00:59 14.40188 111.80849 36910 ft 477 kts 33°
2026-05-06 00:59 14.45663 111.84717 36909 ft 477 kts 33°
2026-05-06 01:00 14.51157 111.88602 36911 ft 478 kts 33°
2026-05-06 01:00 14.56635 111.92477 36911 ft 478 kts 33°
2026-05-06 01:01 14.62125 111.96359 36908 ft 478 kts 33°
2026-05-06 01:01 14.67651 112.00268 36911 ft 478 kts 32°
2026-05-06 01:02 14.73122 112.04130 36909 ft 478 kts 32°
2026-05-06 01:02 14.78632 112.07997 36911 ft 477 kts 32°
2026-05-06 01:03 14.84150 112.11874 36911 ft 477 kts 32°
2026-05-06 01:03 14.89622 112.15720 36912 ft 478 kts 32°
2026-05-06 01:04 14.95121 112.19589 36910 ft 478 kts 32°
2026-05-06 01:04 15.00615 112.23457 36910 ft 478 kts 32°
2026-05-06 01:05 15.06151 112.27357 36909 ft 478 kts 32°
2026-05-06 01:05 15.11658 112.31240 36912 ft 479 kts 32°
2026-05-06 01:06 15.17149 112.35113 36912 ft 478 kts 32°
2026-05-06 01:06 15.22650 112.38997 36912 ft 478 kts 32°
2026-05-06 01:07 15.28160 112.42889 36912 ft 478 kts 32°
2026-05-06 01:07 15.33667 112.46780 36912 ft 478 kts 32°
2026-05-06 01:08 15.39122 112.50639 36912 ft 478 kts 32°
2026-05-06 01:08 15.44638 112.54543 36912 ft 479 kts 32°
2026-05-06 01:09 15.50146 112.58443 36912 ft 479 kts 32°
2026-05-06 01:09 15.55659 112.62350 36912 ft 479 kts 32°
2026-05-06 01:10 15.61149 112.66244 36907 ft 480 kts 32°
2026-05-06 01:10 15.66651 112.70148 36907 ft 479 kts 32°
2026-05-06 01:11 15.72184 112.74076 36908 ft 479 kts 32°
2026-05-06 01:11 15.77695 112.77992 36908 ft 479 kts 32°
2026-05-06 01:12 15.83177 112.81890 36907 ft 479 kts 32°
2026-05-06 01:12 15.88706 112.85823 36908 ft 480 kts 32°
2026-05-06 01:13 15.94222 112.89751 36908 ft 481 kts 32°
2026-05-06 01:13 15.99723 112.93671 36907 ft 480 kts 32°
2026-05-06 01:14 16.08020 112.99586 36895 ft 480 kts 32°
2026-05-06 01:14 16.13532 113.03520 36894 ft 480 kts 32°
2026-05-06 01:15 16.19036 113.07451 36894 ft 480 kts 32°
2026-05-06 01:15 16.24525 113.11374 36899 ft 480 kts 32°
2026-05-06 01:16 16.30015 113.15300 36905 ft 479 kts 32°
2026-05-06 01:16 16.35531 113.19247 36910 ft 480 kts 32°
2026-05-06 01:17 16.41023 113.23180 36908 ft 480 kts 32°
2026-05-06 01:17 16.46544 113.27138 36911 ft 480 kts 32°
2026-05-06 01:18 16.52030 113.31072 36909 ft 480 kts 32°
2026-05-06 01:18 16.57549 113.35033 36910 ft 480 kts 32°
2026-05-06 01:19 16.63045 113.38979 36911 ft 479 kts 32°
2026-05-06 01:19 16.68540 113.42928 36911 ft 479 kts 32°
2026-05-06 01:20 16.74030 113.46877 36912 ft 479 kts 32°
2026-05-06 01:20 16.79533 113.50838 36908 ft 479 kts 32°
2026-05-06 01:21 16.85028 113.54794 36910 ft 479 kts 32°
2026-05-06 01:21 16.90498 113.58738 36912 ft 479 kts 32°
2026-05-06 01:22 16.95977 113.62689 36910 ft 479 kts 32°
2026-05-06 01:22 17.01478 113.66660 36905 ft 479 kts 32°
2026-05-06 01:23 17.06995 113.70617 36906 ft 480 kts 32°
2026-05-06 01:23 17.12508 113.74538 36909 ft 481 kts 32°
2026-05-06 01:24 17.18046 113.78483 36910 ft 480 kts 32°
2026-05-06 01:24 17.23536 113.82398 36909 ft 479 kts 32°
2026-05-06 01:25 17.29061 113.86341 36910 ft 478 kts 32°
2026-05-06 01:25 17.34567 113.90273 36909 ft 479 kts 32°
2026-05-06 01:26 17.40071 113.94207 36911 ft 480 kts 32°
2026-05-06 01:26 17.45594 113.98158 36911 ft 480 kts 32°
2026-05-06 01:27 17.51112 114.02108 36910 ft 481 kts 32°
2026-05-06 01:27 17.56623 114.06057 36910 ft 480 kts 32°
2026-05-06 01:28 17.62108 114.09990 36910 ft 479 kts 32°
2026-05-06 01:28 17.67618 114.13944 36914 ft 479 kts 32°
2026-05-06 01:29 17.73104 114.17883 36920 ft 479 kts 32°
2026-05-06 01:29 17.78643 114.21863 36926 ft 480 kts 32°
2026-05-06 01:30 17.84135 114.25813 36930 ft 480 kts 32°
2026-05-06 01:30 17.89652 114.29784 36930 ft 480 kts 32°
2026-05-06 01:31 17.95125 114.33726 36931 ft 479 kts 31°
2026-05-06 01:31 18.00631 114.37695 36931 ft 479 kts 31°
2026-05-06 01:32 18.06162 114.41684 36931 ft 480 kts 31°
2026-05-06 01:32 18.11642 114.45641 36934 ft 480 kts 31°
2026-05-06 01:33 18.17171 114.49635 36934 ft 480 kts 32°
2026-05-06 01:33 18.22648 114.53596 36934 ft 480 kts 32°
2026-05-06 01:34 18.28087 114.57671 36934 ft 479 kts 33°
2026-05-06 01:34 18.33477 114.61815 36934 ft 478 kts 33°
2026-05-06 01:35 18.38874 114.65958 36930 ft 480 kts 33°
2026-05-06 01:35 18.44276 114.70104 36928 ft 480 kts 33°
2026-05-06 01:36 18.49654 114.74232 36928 ft 480 kts 33°
2026-05-06 01:36 18.55079 114.78398 36929 ft 481 kts 33°
2026-05-06 01:37 18.60477 114.82546 36928 ft 479 kts 33°
2026-05-06 01:37 18.65872 114.86694 36927 ft 480 kts 33°
2026-05-06 01:38 18.71245 114.90829 36924 ft 479 kts 33°
2026-05-06 01:38 18.76654 114.94995 36925 ft 480 kts 33°
2026-05-06 01:39 18.82009 114.99123 36925 ft 479 kts 33°
2026-05-06 01:39 18.87405 115.03284 36927 ft 479 kts 33°
2026-05-06 01:40 18.92777 115.07432 36925 ft 480 kts 33°
2026-05-06 01:40 18.98178 115.11604 36924 ft 480 kts 33°
2026-05-06 01:41 19.03584 115.15784 36925 ft 480 kts 33°
2026-05-06 01:41 19.08999 115.19974 36925 ft 481 kts 33°
2026-05-06 01:42 19.14385 115.24147 36931 ft 481 kts 33°
2026-05-06 01:42 19.19775 115.28325 36927 ft 480 kts 33°
2026-05-06 01:43 19.25161 115.32503 36924 ft 480 kts 33°
2026-05-06 01:43 19.30551 115.36689 36926 ft 480 kts 33°
2026-05-06 01:44 19.35950 115.40884 36926 ft 480 kts 32°
2026-05-06 01:44 19.41332 115.45070 36932 ft 481 kts 32°
2026-05-06 01:45 19.46701 115.49249 36933 ft 481 kts 33°
2026-05-06 01:45 19.52116 115.53468 36934 ft 481 kts 33°
2026-05-06 01:46 19.57467 115.57641 36939 ft 481 kts 33°
2026-05-06 01:46 19.62867 115.61855 36942 ft 480 kts 32°
2026-05-06 01:47 19.68240 115.66051 36933 ft 481 kts 33°
2026-05-06 01:47 19.73626 115.70262 36934 ft 481 kts 33°
2026-05-06 01:48 19.79043 115.74500 36942 ft 481 kts 33°
2026-05-06 01:48 19.84421 115.78712 36940 ft 482 kts 33°
2026-05-06 01:49 19.89839 115.82958 36932 ft 481 kts 32°
2026-05-06 01:49 19.95238 115.87193 36928 ft 481 kts 33°
2026-05-06 01:50 20.00624 115.91421 36930 ft 480 kts 33°
2026-05-06 01:50 20.06011 115.95655 36928 ft 481 kts 33°
2026-05-06 01:51 20.11698 116.00128 36930 ft 481 kts 32°
2026-05-06 01:51 20.17082 116.04366 36931 ft 481 kts 33°
2026-05-06 01:52 20.22457 116.08601 36935 ft 481 kts 32°
2026-05-06 01:52 20.27848 116.12852 36936 ft 482 kts 32°
2026-05-06 01:53 20.33226 116.17097 36936 ft 481 kts 32°
2026-05-06 01:53 20.38614 116.21354 36938 ft 482 kts 32°
2026-05-06 01:54 20.44004 116.25616 36942 ft 482 kts 32°
2026-05-06 01:54 20.49378 116.29869 36942 ft 482 kts 32°
2026-05-06 01:55 20.54759 116.34132 36941 ft 481 kts 32°
2026-05-06 01:55 20.60160 116.38413 36946 ft 481 kts 32°
2026-05-06 01:56 20.65533 116.42677 36957 ft 482 kts 32°
2026-05-06 01:56 20.70887 116.46928 36964 ft 482 kts 32°
2026-05-06 01:57 20.76281 116.51217 36969 ft 483 kts 32°
2026-05-06 01:57 20.81659 116.55497 36969 ft 482 kts 32°
2026-05-06 01:58 20.87062 116.59800 36968 ft 481 kts 32°
2026-05-06 01:58 20.92410 116.64062 36970 ft 482 kts 32°
2026-05-06 01:59 20.97789 116.68355 36960 ft 482 kts 32°
2026-05-06 01:59 21.03190 116.72668 36965 ft 483 kts 32°
2026-05-06 02:00 21.08585 116.76981 36967 ft 484 kts 32°
2026-05-06 02:00 21.13989 116.81305 36971 ft 484 kts 32°
2026-05-06 02:01 21.19373 116.85616 36973 ft 483 kts 32°
2026-05-06 02:01 21.24723 116.89905 36973 ft 484 kts 32°
2026-05-06 02:02 21.30124 116.94239 36970 ft 483 kts 32°
2026-05-06 02:02 21.35516 116.98569 36971 ft 484 kts 32°
2026-05-06 02:03 21.40905 117.02900 36964 ft 485 kts 32°
2026-05-06 02:03 21.46305 117.07246 36965 ft 484 kts 32°
2026-05-06 02:04 21.49907 117.10146 36963 ft 484 kts 32°